Temp
-11 -11 -11 -11 -11 -10 -11 -11 -11 -11 -11 -11 -11 -11 -11 -11 -11 -11 -11 -11 -11 -11 -10 -10 -10 -10 -10 -10 -11 -10 -10 -10 -10 -10 -10 -10 -10 -10 -10 -10 -10 -10 -10 -10 -10 -10 -10
-11 -11 -11 -11 -11 -11 -11 -11 -11 -11 -11 -11 -11 -12 -12 -12 -12 -12 -11 -11 -11 -11 -10 -10 -10 -10 -10 -10 -11 -11 -10 -10 -10 -10 -10 -10 -10 -10 -10 -10 -10 -10 -10 -10 -10 -10 -10
-10 -10 -11 -11 -11 -11 -11 -11 -11 -11 -11 -11 -11 -11 -12 -12 -12 -12 -12 -11 -11 -11 -11 -10 -10 -11 -11 -11 -11 -11 -11 -10 -10 -10 -10 -10 -10 -10 -10 -10 -10 -10 -10 -10 -10 -10 -10
-11 -11 -10 -10 -11 -11 -11 -12 -12 -12 -12 -12 -12 -12 -12 -12 -12 -12 -12 -12 -12 -11 -11 -11 -11 -11 -11 -11 -11 -11 -11 -11 -10 -10 -10 -10 -10 -10 -10 -10 -10 -10 -10 -10 -10 -10 -10
-11 -11 -11 -11 -11 -11 -11 -11 -11 -11 -12 -12 -12 -12 -12 -12 -12 -12 -12 -12 -12 -12 -12 -11 -11 -11 -12 -11 -11 -12 -11 -11 -10 -10 -10 -10 -10 -10 -10 -10 -10 -10 -10 -10 -10 -10 -10
-12 -12 -11 -11 -11 -11 -11 -11 -11 -11 -11 -11 -12 -12 -13 -13 -13 -13 -12 -12 -12 -12 -12 -12 -12 -12 -12 -12 -12 -12 -12 -11 -11 -11 -10 -10 -10 -10 -10 -10 -10 -10 -10 -10 -10 -10 -10
-12 -12 -12 -12 -12 -12 -12 -12 -12 -12 -12 -12 -12 -12 -12 -12 -13 -14 -13 -13 -12 -12 -13 -13 -13 -12 -12 -13 -13 -12 -12 -12 -11 -11 -11 -10 -10 -10 -10 -10 -10 -10 -10 -10 -10 -11 -11
-12 -12 -12 -12 -12 -12 -12 -13 -12 -12 -12 -12 -12 -12 -12 -12 -12 -12 -13 -13 -13 -12 -12 -13 -13 -13 -13 -13 -13 -13 -13 -12 -12 -11 -11 -11 -10 -10 -10 -10 -10 -10 -10 -11 -11 -11 -10
-11 -12 -12 -12 -13 -13 -13 -12 -12 -13 -13 -13 -13 -13 -12 -13 -13 -13 -13 -12 -13 -13 -12 -13 -13 -13 -14 -14 -14 -13 -13 -12 -12 -11 -11 -11 -10 -10 -10 -10 -11 -11 -11 -11 -11 -11 -10
-11 -11 -12 -12 -12 -12 -12 -12 -13 -13 -13 -13 -13 -13 -13 -13 -13 -13 -13 -13 -13 -12 -12 -12 -13 -13 -14 -14 -13 -13 -13 -12 -12 -11 -11 -10 -10 -11 -11 -11 -11 -11 -11 -11 -11 -11 -10
-11 -11 -11 -11 -12 -12 -12 -12 -12 -12 -13 -13 -13 -13 -13 -14 -14 -14 -14 -13 -14 -14 -12 -12 -12 -13 -13 -13 -13 -13 -13 -12 -12 -11 -11 -11 -11 -11 -11 -11 -11 -11 -11 -11 -11 -11 -10
-12 -12 -12 -11 -12 -12 -12 -12 -13 -13 -13 -13 -13 -14 -14 -14 -14 -14 -14 -14 -14 -14 -12 -12 -12 -13 -13 -13 -14 -13 -13 -13 -12 -12 -12 -11 -11 -11 -11 -12 -12 -12 -12 -12 -11 -11 -10
-13 -13 -13 -13 -12 -13 -12 -12 -12 -12 -14 -14 -13 -14 -14 -14 -14 -14 -14 -14 -14 -13 -13 -13 -13 -13 -13 -14 -13 -13 -13 -13 -13 -12 -12 -12 -12 -12 -12 -12 -12 -12 -12 -12 -11 -11 -11
-12 -12 -13 -13 -13 -13 -13 -13 -12 -12 -12 -13 -13 -14 -14 -14 -14 -14 -14 -14 -13 -13 -14 -14 -14 -13 -13 -13 -14 -13 -13 -13 -13 -13 -13 -13 -13 -13 -13 -12 -12 -13 -12 -13 -12 -11 -11
-12 -12 -12 -13 -13 -13 -13 -13 -13 -13 -13 -13 -13 -13 -13 -14 -15 -15 -15 -14 -13 -14 -14 -14 -14 -14 -13 -14 -14 -14 -13 -13 -13 -14 -13 -13 -13 -13 -13 -13 -13 -13 -13 -13 -13 -12 -12
-12 -12 -12 -12 -12 -13 -13 -13 -13 -13 -13 -13 -13 -13 -13 -14 -14 -15 -15 -13 -13 -14 -14 -14 -14 -14 -14 -14 -13 -14 -13 -13 -13 -13 -13 -13 -13 -13 -13 -13 -13 -13 -13 -13 -13 -13 -12
-12 -12 -12 -12 -13 -13 -13 -13 -14 -14 -14 -14 -14 -13 -13 -13 -14 -15 -14 -14 -14 -15 -15 -14 -14 -14 -14 -14 -14 -13 -13 -13 -14 -14 -14 -14 -14 -13 -13 -13 -13 -13 -13 -14 -14 -13 -13
-11 -12 -12 -13 -13 -13 -13 -13 -13 -13 -13 -13 -13 -13 -13 -14 -14 -14 -14 -15 -15 -15 -15 -15 -14 -14 -14 -14 -14 -14 -13 -14 -14 -14 -14 -15 -14 -13 -13 -13 -13 -13 -13 -13 -14 -13 -13
-12 -12 -13 -13 -13 -13 -14 -13 -13 -13 -14 -13 -13 -13 -13 -14 -14 -14 -15 -15 -16 -16 -16 -15 -15 -15 -15 -15 -14 -14 -14 -14 -14 -14 -14 -14 -13 -14 -13 -13 -13 -13 -13 -14 -14 -14 -13
-12 -12 -12 -13 -13 -13 -13 -13 -13 -14 -14 -14 -14 -14 -14 -15 -16 -17 -17 -16 -16 -16 -16 -17 -16 -16 -15 -15 -15 -14 -14 -14 -14 -15 -15 -15 -14 -13 -12 -13 -13 -13 -13 -14 -14 -14 -14
-13 -13 -13 -13 -13 -13 -13 -13 -13 -14 -15 -15 -16 -17 -17 -17 -19 -20 -20 -19 -19 -18 -18 -17 -16 -16 -16 -15 -15 -14 -14 -14 -14 -14 -15 -15 -14 -14 -13 -13 -13 -13 -13 -14 -14 -14 -14
-13 -13 -13 -13 -14 -13 -13 -14 -15 -16 -18 -18 -18 -20 -20 -20 -21 -22 -22 -21 -21 -20 -20 -18 -17 -17 -17 -16 -16 -15 -15 -15 -14 -14 -14 -14 -14 -14 -14 -14 -14 -13 -13 -13 -14 -14 -14
-14 -14 -14 -14 -14 -15 -15 -16 -18 -20 -21 -21 -22 -22 -23 -21 -22 -23 -23 -23 -22 -22 -21 -20 -18 -18 -17 -17 -16 -16 -15 -15 -15 -15 -14 -15 -15 -14 -14 -14 -14 -14 -13 -14 -14 -14 -15
-14 -15 -15 -15 -15 -16 -18 -19 -21 -22 -23 -23 -23 -24 -24 -23 -23 -24 -25 -24 -24 -23 -22 -21 -20 -19 -19 -18 -18 -17 -16 -15 -15 -15 -15 -15 -15 -15 -15 -15 -15 -14 -14 -14 -15 -15 -15
-15 -16 -16 -17 -18 -19 -21 -22 -23 -24 -24 -24 -24 -24 -24 -24 -24 -25 -26 -25 -25 -24 -23 -22 -21 -20 -20 -19 -18 -18 -17 -17 -16 -16 -16 -15 -15 -15 -16 -15 -15 -15 -15 -15 -15 -16 -16
-17 -18 -18 -20 -21 -22 -23 -23 -24 -25 -25 -25 -25 -25 -25 -24 -25 -26 -26 -26 -25 -25 -23 -23 -22 -21 -20 -20 -19 -19 -18 -18 -17 -17 -17 -17 -17 -17 -17 -17 -17 -16 -16 -17 -17 -17 -17
-20 -20 -21 -23 -24 -24 -24 -25 -25 -26 -26 -26 -25 -26 -26 -26 -26 -27 -26 -26 -26 -25 -25 -24 -23 -22 -21 -20 -20 -20 -19 -19 -18 -18 -18 -18 -17 -17 -18 -18 -18 -18 -18 -18 -18 -18 -18
-21 -22 -23 -24 -25 -25 -25 -26 -26 -27 -27 -27 -27 -27 -28 -28 -27 -27 -27 -26 -26 -25 -25 -24 -23 -23 -22 -21 -21 -20 -20 -19 -19 -19 -19 -18 -18 -18 -18 -18 -18 -18 -18 -18 -18 -18 -18
-22 -24 -26 -26 -26 -27 -27 -27 -27 -27 -27 -27 -27 -27 -28 -28 -27 -27 -27 -26 -26 -25 -25 -24 -24 -23 -23 -23 -22 -22 -21 -20 -20 -20 -20 -20 -20 -20 -20 -20 -19 -19 -19 -19 -19 -19 -19
Height
5838 5839 5839 5840 5841 5841 5841 5842 5840 5839 5838 5837 5836 5836 5835 5834 5834 5834 5834 5834 5833 5833 5833 5832 5832 5832 5832 5830 5830 5830 5832 5833 5834 5834 5834 5834 5833 5833 5832 5832 5832 5832 5832 5831 5831 5830 5830
5837 5836 5836 5835 5836 5837 5838 5839 5839 5838 5838 5836 5835 5833 5832 5832 5831 5829 5829 5830 5830 5829 5829 5828 5829 5829 5828 5827 5826 5827 5828 5829 5830 5831 5831 5831 5831 5831 5830 5830 5830 5830 5830 5829 5828 5828 5827
5833 5833 5833 5834 5834 5834 5833 5834 5834 5834 5834 5834 5833 5831 5830 5828 5828 5827 5826 5824 5824 5825 5825 5824 5824 5824 5824 5824 5822 5823 5823 5824 5826 5827 5827 5827 5828 5828 5828 5828 5827 5827 5827 5827 5826 5825 5824
5829 5829 5829 5829 5829 5829 5830 5830 5830 5829 5828 5828 5828 5828 5827 5825 5823 5823 5822 5820 5819 5819 5819 5819 5819 5819 5819 5819 5819 5819 5819 5819 5821 5822 5823 5823 5824 5824 5824 5824 5824 5823 5824 5823 5822 5822 5821
5827 5827 5826 5825 5824 5824 5824 5824 5824 5824 5823 5824 5823 5822 5821 5820 5819 5817 5817 5816 5815 5813 5812 5813 5814 5813 5813 5813 5814 5815 5814 5814 5815 5816 5817 5818 5819 5820 5820 5820 5819 5819 5819 5818 5817 5816 5815
5823 5822 5822 5821 5820 5820 5819 5819 5819 5817 5816 5816 5816 5816 5815 5814 5813 5812 5811 5810 5809 5808 5807 5807 5807 5808 5807 5807 5807 5808 5808 5808 5809 5810 5812 5812 5813 5814 5815 5813 5813 5814 5814 5812 5811 5811 5809
5818 5818 5818 5817 5816 5815 5814 5813 5812 5812 5811 5809 5807 5807 5807 5807 5806 5805 5804 5803 5803 5802 5801 5800 5800 5800 5799 5799 5799 5799 5800 5800 5802 5803 5804 5805 5806 5809 5806 5806 5807 5807 5807 5806 5804 5803 5802
5816 5815 5812 5811 5810 5809 5808 5808 5807 5806 5804 5804 5803 5800 5799 5798 5798 5796 5795 5794 5793 5792 5792 5792 5791 5791 5791 5790 5791 5791 5792 5792 5793 5794 5795 5797 5799 5798 5799 5799 5799 5799 5798 5798 5796 5795 5795
5811 5809 5807 5806 5805 5803 5802 5801 5801 5800 5800 5798 5797 5795 5794 5792 5790 5788 5786 5785 5783 5781 5779 5785 5783 5782 5780 5781 5781 5783 5783 5783 5784 5785 5786 5786 5789 5789 5790 5790 5790 5789 5789 5789 5788 5787 5787
5803 5802 5801 5800 5799 5797 5795 5792 5792 5792 5792 5791 5789 5788 5787 5786 5786 5782 5780 5777 5775 5772 5769 5777 5776 5774 5772 5771 5772 5774 5774 5775 5775 5776 5777 5776 5778 5780 5780 5781 5781 5780 5781 5780 5779 5779 5779
5794 5792 5792 5790 5790 5788 5787 5787 5784 5782 5780 5780 5781 5781 5779 5778 5778 5776 5774 5771 5766 5765 5762 5768 5767 5766 5766 5765 5764 5766 5765 5766 5766 5766 5768 5768 5769 5769 5769 5771 5771 5773 5772 5771 5771 5770 5770
5784 5784 5781 5780 5779 5778 5778 5777 5776 5774 5772 5770 5769 5770 5769 5770 5768 5768 5767 5764 5761 5757 5755 5759 5761 5761 5761 5759 5758 5757 5757 5758 5758 5758 5759 5759 5759 5759 5760 5761 5762 5763 5764 5763 5762 5762 5759
5775 5774 5772 5771 5769 5768 5766 5766 5766 5765 5764 5761 5759 5759 5759 5758 5759 5758 5758 5756 5753 5746 5756 5753 5754 5753 5753 5753 5753 5751 5750 5750 5750 5751 5752 5751 5751 5752 5752 5753 5754 5756 5757 5755 5754 5753 5753
5760 5759 5759 5758 5757 5755 5754 5754 5754 5752 5752 5750 5750 5749 5748 5748 5747 5747 5747 5746 5738 5742 5751 5747 5746 5744 5743 5744 5744 5744 5744 5743 5744 5744 5745 5744 5747 5746 5747 5747 5747 5747 5748 5748 5745 5745 5746
5748 5747 5746 5746 5746 5745 5743 5741 5741 5740 5738 5737 5737 5737 5737 5735 5734 5736 5737 5730 5729 5734 5740 5739 5737 5734 5735 5735 5734 5734 5734 5737 5737 5737 5736 5736 5736 5739 5739 5739 5740 5740 5740 5743 5737 5734 5734
5735 5733 5733 5731 5730 5728 5727 5726 5724 5723 5723 5723 5722 5720 5722 5721 5721 5723 5722 5716 5717 5722 5726 5727 5724 5725 5722 5725 5724 5724 5724 5726 5728 5728 5727 5726 5726 5729 5729 5730 5729 5730 5733 5731 5730 5726 5722
5720 5719 5718 5717 5715 5714 5712 5710 5710 5708 5707 5706 5705 5704 5707 5707 5708 5706 5705 5705 5706 5711 5712 5711 5711 5711 5712 5712 5712 5713 5712 5716 5718 5719 5718 5715 5715 5716 5718 5719 5721 5720 5718 5721 5721 5719 5715
5706 5705 5703 5701 5700 5699 5697 5695 5693 5691 5687 5684 5686 5685 5685 5684 5688 5689 5689 5690 5692 5693 5697 5696 5696 5698 5698 5699 5698 5698 5700 5702 5705 5706 5706 5707 5703 5702 5705 5705 5707 5707 5708 5710 5709 5710 5708
5692 5690 5689 5687 5684 5681 5679 5677 5674 5672 5667 5663 5661 5663 5663 5661 5660 5663 5669 5673 5672 5676 5679 5678 5679 5682 5684 5684 5683 5685 5687 5690 5690 5691 5692 5692 5691 5691 5691 5693 5694 5697 5699 5697 5696 5695 5692
5675 5673 5670 5667 5663 5661 5659 5655 5652 5649 5646 5644 5641 5640 5637 5637 5638 5639 5641 5648 5651 5655 5658 5660 5662 5663 5664 5666 5669 5666 5673 5674 5676 5676 5677 5676 5676 5677 5678 5680 5681 5682 5684 5684 5682 5679 5681
5659 5656 5653 5650 5647 5644 5641 5637 5633 5627 5623 5620 5618 5617 5617 5618 5620 5621 5618 5621 5625 5629 5634 5640 5642 5645 5645 5642 5647 5651 5654 5657 5657 5657 5659 5658 5661 5663 5663 5662 5662 5664 5666 5665 5665 5669 5661
5635 5634 5632 5630 5626 5622 5618 5613 5609 5607 5600 5600 5599 5600 5600 5601 5601 5603 5601 5607 5609 5613 5613 5618 5626 5627 5626 5626 5628 5631 5635 5636 5638 5641 5640 5639 5642 5645 5645 5647 5646 5647 5648 5647 5649 5649 5649
5618 5616 5611 5608 5605 5600 5597 5592 5589 5588 5585 5583 5583 5583 5581 5584 5585 5586 5589 5593 5592 5595 5599 5601 5605 5610 5611 5613 5612 5612 5616 5618 5621 5622 5623 5624 5626 5628 5625 5628 5627 5628 5634 5632 5632 5632 5632
5599 5594 5589 5586 5583 5579 5575 5573 5572 5571 5569 5569 5571 5570 5569 5568 5572 5575 5575 5576 5578 5581 5582 5587 5589 5592 5596 5598 5599 5596 5598 5602 5604 5607 5607 5610 5611 5606 5607 5609 5605 5613 5613 5614 5614 5614 5614
5576 5572 5569 5564 5561 5559 5556 5555 5555 5555 5554 5555 5556 5556 5555 5556 5560 5563 5564 5564 5566 5568 5569 5573 5576 5578 5581 5583 5585 5585 5585 5586 5589 5591 5593 5595 5594 5590 5588 5590 5593 5596 5597 5596 5596 5597 5596
5554 5550 5549 5545 5541 5539 5538 5539 5540 5540 5540 5540 5543 5543 5543 5544 5550 5552 5553 5554 5554 5556 5559 5561 5564 5564 5565 5567 5571 5572 5574 5575 5576 5578 5581 5580 5580 5578 5575 5574 5577 5580 5580 5581 5582 5582 5581
5533 5532 5529 5525 5524 5523 5523 5524 5526 5528 5523 5526 5530 5531 5532 5533 5540 5542 5543 5544 5545 5545 5546 5548 5551 5551 5552 5555 5557 5560 5564 5563 5563 5566 5570 5568 5567 5566 5564 5562 5564 5568 5566 5567 5569 5572 5569
5517 5515 5512 5510 5510 5510 5510 5511 5513 5518 5516 5516 5519 5520 5522 5525 5530 5533 5534 5535 5535 5536 5537 5540 5539 5541 5543 5545 5546 5547 5549 5551 5551 5555 5556 5555 5554 5555 5553 5552 5555 5556 5555 5556 5556 5555 5556
5502 5500 5498 5498 5498 5499 5499 5500 5501 5502 5503 5504 5509 5512 5514 5517 5522 5525 5526 5527 5527 5526 5527 5528 5529 5532 5530 5532 5533 5532 5534 5535 5539 5543 5545 5546 5543 5543 5544 5543 5543 5542 5542 5543 5543 5543 5543
Wind_Speed
8 9 10 10 11 12 14 16 16 15 15 14 14 16 16 16 17 17 19 19 19 19 20 18 20 21 19 20 24 24 23 21 21 19 15 11 9 8 6 5 5 6 7 8 8 9 9
7 10 12 12 13 14 15 17 19 20 21 21 20 19 19 19 19 17 18 19 20 21 20 19 21 22 20 21 24 26 25 24 23 22 18 15 13 12 10 10 9 9 9 10 10 10 11
6 7 10 14 16 16 17 19 20 21 23 25 26 25 24 23 23 22 20 19 20 21 21 20 23 22 20 21 22 27 27 26 25 24 21 19 17 16 15 14 14 14 14 14 15 15 15
12 11 10 10 12 14 18 20 21 22 23 24 27 29 28 28 27 28 26 22 21 22 22 23 25 24 20 22 22 27 30 29 28 28 25 24 22 21 19 19 19 19 19 20 21 20 19
17 16 15 14 14 14 14 15 18 20 22 26 27 29 31 31 30 29 30 27 25 25 24 25 27 27 24 26 28 26 30 33 32 31 29 28 26 25 23 23 24 24 25 25 25 26 26
22 22 21 19 19 19 18 18 20 19 18 19 21 26 31 34 34 34 30 31 29 28 27 27 30 30 29 29 32 33 30 33 35 36 35 33 32 30 29 31 31 30 30 30 31 30 31
20 23 24 24 24 25 24 24 25 25 25 23 22 23 23 27 32 35 35 33 33 31 31 30 32 33 35 35 34 34 34 34 35 38 38 39 37 32 37 37 36 35 35 35 35 35 32
26 25 26 25 25 26 28 30 30 29 28 29 29 27 26 24 26 28 33 35 37 38 35 34 34 35 37 37 34 34 35 37 38 39 40 41 39 40 40 41 41 40 39 37 36 35 32
31 31 30 30 32 32 32 29 32 33 33 32 32 32 31 29 28 27 28 30 34 38 41 36 38 36 35 35 34 34 37 39 40 42 43 44 43 43 44 44 42 40 37 36 36 34 32
35 34 34 35 35 35 36 36 35 36 37 37 36 35 35 35 32 32 31 30 31 36 40 32 29 30 31 32 34 34 36 39 41 43 44 46 46 45 44 42 41 40 37 37 36 36 34
40 41 39 40 40 41 38 41 40 39 39 38 39 41 40 38 38 36 35 34 32 34 41 32 25 23 22 25 28 29 33 36 38 40 42 43 43 43 43 42 43 41 38 38 37 37 36
38 43 39 45 44 45 46 45 44 43 44 44 44 43 45 43 42 42 40 38 39 38 35 33 30 27 28 27 26 26 29 32 35 35 35 37 38 37 38 38 39 37 36 37 37 37 41
47 46 43 45 44 47 45 47 50 52 50 50 50 48 47 46 46 46 45 44 47 48 34 32 29 27 28 29 30 31 30 28 30 31 30 31 30 30 32 33 34 33 34 37 40 40 41
47 47 50 51 51 50 50 51 51 52 53 55 55 53 50 49 48 48 49 51 53 50 39 37 33 31 32 35 34 34 34 32 29 31 33 33 31 30 30 31 33 35 36 37 42 42 42
48 49 50 50 50 50 51 52 52 52 55 59 58 58 59 54 52 49 50 56 54 52 44 41 40 41 36 33 38 38 37 37 34 32 34 36 37 34 34 35 37 37 38 36 43 47 47
47 48 49 50 52 54 54 56 56 57 58 59 59 61 60 61 60 57 55 60 58 55 52 50 47 46 45 38 39 38 41 39 38 37 38 39 41 38 39 39 41 41 40 42 43 48 51
49 50 52 54 54 57 58 60 63 64 65 68 68 67 65 65 66 64 66 64 63 56 56 56 55 52 51 49 43 44 42 43 42 39 42 42 43 45 42 41 39 42 45 44 45 49 52
54 55 55 57 59 62 65 68 70 72 72 72 75 76 76 77 75 74 71 69 68 65 54 57 59 55 56 54 53 51 50 45 43 45 45 44 49 50 47 47 46 46 47 47 49 50 51
58 59 60 63 66 67 70 73 76 78 80 79 78 79 80 82 84 83 79 76 73 72 66 62 61 60 58 57 59 57 56 52 50 48 49 49 52 53 55 54 53 51 49 49 49 51 56
64 66 68 69 70 72 74 75 77 79 81 82 82 84 84 81 79 79 80 79 81 76 76 68 66 63 64 57 61 66 60 59 57 56 55 55 56 58 59 58 58 59 57 56 56 59 59
70 71 73 74 75 76 79 81 82 80 81 81 76 73 71 70 64 56 58 71 74 72 68 69 66 66 64 65 65 61 59 60 62 63 62 63 63 62 61 62 62 62 62 61 62 59 63
74 76 77 79 81 81 80 81 82 79 70 69 67 58 56 57 56 55 54 55 59 62 66 67 60 53 56 65 67 65 64 62 62 61 65 66 67 66 65 64 65 64 64 64 63 64 65
79 82 81 82 86 85 84 78 70 65 60 57 54 51 49 51 50 54 59 53 54 52 58 68 62 56 48 47 60 62 63 64 66 62 62 60 62 64 67 66 66 66 66 66 64 62 61
86 87 86 85 84 80 72 67 59 55 53 51 49 47 48 48 45 46 49 53 52 53 43 51 65 65 48 47 47 46 58 66 70 68 67 66 64 65 66 68 70 68 66 64 61 57 53
88 87 85 78 73 70 61 55 53 52 52 50 47 48 48 48 44 42 45 49 54 53 53 34 47 55 62 47 52 44 43 48 51 53 58 61 59 54 58 64 64 64 61 56 53 48 46
80 77 76 68 60 54 52 52 50 50 50 50 47 47 48 48 41 39 40 43 45 51 56 54 35 42 59 65 47 43 41 43 44 44 42 42 43 42 44 48 48 46 44 41 39 41 43
66 67 63 56 50 50 49 47 45 42 37 45 45 46 47 47 38 39 39 38 41 41 42 44 41 42 40 48 56 54 46 41 39 40 41 41 41 40 38 36 37 36 36 37 41 43 44
58 59 50 46 44 42 40 39 37 36 48 44 34 41 44 42 39 36 35 33 35 36 39 39 42 39 41 42 43 45 48 45 39 38 38 38 37 36 38 39 41 39 40 42 44 46 47
55 46 38 36 34 32 33 34 34 36 38 38 37 35 39 40 36 33 33 31 32 32 35 36 42 34 31 29 30 32 35 43 43 39 35 36 35 35 36 37 40 42 43 44 46 48 49
Wind_Direction
258 274 277 277 275 271 271 275 273 274 277 278 284 294 297 300 304 308 304 298 291 283 280 279 281 285 286 280 247 230 227 228 237 236 237 245 248 254 258 268 277 287 296 298 295 291 287
274 255 257 261 263 264 267 270 277 279 282 285 286 288 290 296 296 296 294 291 288 282 275 276 280 280 285 290 252 236 228 230 235 239 240 238 243 252 264 269 276 279 283 286 291 287 281
256 261 264 260 262 268 267 269 270 274 282 285 287 288 288 289 291 292 287 282 279 281 279 278 280 281 277 287 266 244 236 231 234 239 241 241 245 248 255 263 269 274 280 283 284 282 283
253 252 253 261 265 266 268 269 271 275 276 278 283 285 284 286 289 292 291 285 274 274 276 278 277 276 276 280 284 255 244 238 237 239 240 244 245 251 257 263 269 271 273 274 274 277 279
257 256 253 249 252 255 260 268 275 277 277 280 281 283 284 284 284 286 288 285 279 272 272 272 275 273 274 275 277 272 253 246 242 242 242 243 247 251 256 262 265 267 270 275 277 276 275
253 251 256 259 260 260 260 264 268 268 271 279 288 291 287 285 286 286 285 286 280 277 271 268 268 269 274 277 275 270 261 251 248 246 246 247 249 252 259 262 265 268 270 273 273 272 271
260 255 256 259 263 264 264 262 263 266 268 267 269 275 287 295 291 285 285 283 281 277 275 265 266 266 269 276 274 263 261 256 251 249 251 251 253 257 257 263 267 268 269 272 274 271 266
272 269 263 256 256 260 265 267 269 269 266 268 270 269 271 276 287 294 291 284 282 278 271 270 264 264 269 271 266 260 257 256 255 254 254 255 256 257 261 264 266 268 270 271 268 267 266
276 275 270 270 267 267 267 273 268 270 272 271 270 271 273 274 276 280 286 290 290 285 281 272 273 274 272 265 262 260 256 256 255 255 257 258 260 260 262 264 266 266 266 266 266 265 262
273 274 276 278 276 275 274 269 268 268 273 273 271 271 272 274 275 279 280 282 288 293 292 293 281 281 273 267 263 263 261 256 256 257 257 258 260 261 261 262 262 261 263 263 262 260 259
262 263 264 267 270 273 273 278 274 270 270 268 273 276 273 273 275 274 277 280 279 283 290 305 302 286 277 272 270 265 263 261 259 258 257 259 260 260 260 258 258 259 259 259 256 256 256
261 256 260 259 262 266 269 273 275 278 277 273 271 271 274 275 273 274 274 275 278 274 284 294 303 289 276 275 274 268 266 264 260 259 260 261 259 256 256 255 254 254 254 253 253 255 256
266 267 265 266 263 262 262 264 262 271 276 276 276 274 273 271 271 273 274 275 275 272 283 285 293 291 281 275 275 270 262 263 260 258 261 260 260 255 253 252 252 252 251 252 253 253 259
271 270 269 268 266 266 266 265 266 263 266 270 274 276 278 277 272 268 273 275 271 278 283 281 282 280 276 276 269 270 267 263 261 260 260 262 262 261 257 256 253 251 251 252 259 259 258
273 274 274 275 275 275 274 271 272 268 265 264 266 270 273 273 273 271 266 268 270 276 276 280 276 275 271 269 272 267 265 265 264 261 262 263 261 260 261 258 256 256 257 258 259 261 261
275 277 278 278 279 278 278 277 274 273 272 269 266 264 265 270 271 272 265 263 262 271 275 271 271 272 271 267 266 266 266 259 259 258 261 263 263 257 255 259 259 262 262 260 259 264 265
278 278 278 279 278 278 278 278 280 279 279 278 276 274 269 266 269 268 266 264 265 265 272 272 267 268 269 268 262 264 259 264 262 257 258 257 258 262 260 260 261 260 261 262 265 264 269
280 281 281 280 281 282 282 282 282 281 280 279 279 277 276 274 268 264 263 265 262 262 260 265 265 265 265 267 266 261 262 261 257 259 257 260 263 262 261 259 259 260 262 265 267 271 271
280 281 282 283 282 281 282 281 283 283 283 279 277 277 276 274 272 270 264 262 262 259 257 256 257 255 259 263 267 264 262 260 260 258 258 256 260 264 264 262 262 265 266 267 269 269 268
279 279 280 280 279 279 279 278 280 284 284 284 282 280 276 273 271 269 267 262 261 260 258 264 263 260 257 254 261 264 262 261 259 258 259 258 258 260 265 268 269 270 271 269 268 268 272
285 284 283 283 283 283 285 286 286 286 283 280 278 278 277 276 270 269 266 261 256 257 256 258 262 256 250 251 249 254 260 261 262 259 258 259 261 261 261 263 265 268 270 270 271 273 271
282 282 282 285 285 285 285 286 286 285 281 279 280 275 271 270 263 253 253 259 254 251 250 247 260 256 257 254 252 252 257 259 257 261 261 259 258 260 262 263 265 266 269 271 273 274 276
288 289 288 287 289 290 289 287 284 281 276 274 274 272 271 270 262 257 254 256 254 251 254 251 248 255 254 262 256 251 254 259 258 258 256 260 262 263 263 263 264 266 268 269 271 272 273
289 289 290 289 288 286 285 282 277 273 270 269 269 269 269 270 267 261 256 251 256 250 257 257 258 252 261 262 262 255 255 257 256 259 261 264 264 262 264 263 262 264 266 267 267 269 270
290 290 288 287 285 283 279 274 270 267 267 267 266 266 266 266 265 262 260 259 257 258 249 264 257 265 254 258 264 264 257 256 257 260 261 262 263 265 266 267 268 265 266 266 268 270 270
289 288 285 283 281 277 273 269 267 265 265 265 265 264 262 263 260 264 265 263 268 264 251 256 264 262 260 257 260 265 266 260 260 264 265 264 265 266 267 267 270 269 267 269 270 271 271
286 284 281 281 278 275 273 271 269 272 268 268 262 254 254 258 260 266 269 268 266 270 266 270 264 258 255 260 259 264 269 263 262 269 270 269 267 266 267 269 269 269 267 267 270 275 278
283 281 282 279 277 275 272 268 264 238 245 257 254 247 246 253 259 267 271 272 270 266 263 265 261 256 256 253 257 260 261 261 263 267 268 266 265 268 274 277 277 276 274 273 273 274 276
279 279 276 275 274 272 270 269 265 258 251 249 244 245 247 253 261 266 268 269 272 274 266 268 264 257 251 247 248 251 253 256 259 262 267 270 272 276 279 282 282 281 281 281 280 281 282